Theta_e
326 327 326 327 326 325 327 329 328 327 326 326 326 327 327 327 328 330 329 328 328 327 328 327 326 325 323 323 323 321 321 316 308 306 306 305 306 306 305 304 303 303 303 303 303 303 303 303 302 302 302 302 302 302 303 306 311 313 313 313 313 313 313 313 313 313 313 313 313 313 313 313 313 313
324 325 326 327 327 327 328 329 327 326 326 325 326 327 327 328 328 328 327 327 327 327 327 326 325 325 323 323 322 321 320 315 307 307 310 308 306 306 306 304 303 303 302 303 304 304 304 303 303 303 302 302 302 302 305 308 312 313 313 313 313 313 313 313 313 313 313 313 312 312 312 313 312 312
323 324 326 327 327 327 328 327 325 325 325 324 326 327 327 328 328 327 326 326 326 326 326 325 325 325 324 323 322 320 319 315 307 308 314 314 308 306 306 305 303 303 302 303 305 305 304 303 303 303 303 303 303 304 307 310 312 313 313 313 313 313 313 313 313 313 313 312 312 312 312 312 312 312
324 325 327 328 327 327 327 327 326 325 325 326 328 329 329 328 328 327 327 326 326 326 326 325 325 326 324 323 322 318 318 315 309 310 317 317 311 306 305 305 303 302 303 304 305 305 305 304 303 303 303 303 304 306 309 311 312 313 313 313 313 312 312 312 312 312 312 312 312 312 312 312 312 312
327 327 329 329 327 327 328 327 327 327 328 329 330 330 331 330 328 327 326 326 327 326 326 325 325 325 324 323 321 317 318 315 309 313 318 314 310 307 305 304 303 302 303 304 306 306 305 305 304 303 303 304 306 308 310 312 312 312 313 312 313 313 312 312 312 312 312 312 312 312 312 312 312 312
328 329 330 330 328 328 328 327 328 330 329 329 329 328 329 329 328 327 326 326 325 325 325 325 325 325 324 323 320 317 319 316 308 314 318 311 307 308 306 304 303 302 304 304 305 306 306 305 305 304 304 305 307 309 311 312 312 312 313 312 313 312 312 312 312 312 312 312 312 312 312 312 312 313
329 330 330 330 328 328 329 328 328 330 328 327 327 327 328 329 328 327 327 326 325 324 325 325 325 325 323 323 321 317 319 317 309 311 316 313 309 310 308 307 305 303 303 304 305 306 307 307 306 305 305 306 309 311 312 312 312 312 312 313 313 313 312 312 312 312 312 312 312 312 312 312 312 312
329 329 330 330 329 329 329 328 328 328 327 326 327 327 329 329 327 326 326 325 324 324 324 325 325 325 324 322 321 318 319 318 311 309 314 315 313 311 310 311 311 307 304 304 305 305 306 307 307 307 307 307 309 311 312 312 312 312 312 312 312 312 312 312 312 312 312 312 312 312 312 312 312 312
329 329 330 330 329 329 329 328 328 328 326 326 328 329 330 329 327 326 326 325 324 324 324 324 324 325 324 321 319 319 319 319 315 311 312 313 313 312 310 311 313 311 307 304 304 305 305 306 307 307 307 307 308 309 310 311 311 312 312 312 312 311 311 311 311 311 312 312 312 312 312 312 312 312
329 329 330 330 330 330 329 328 328 328 326 326 328 329 329 328 326 326 326 325 325 324 324 323 323 324 323 320 318 319 319 319 317 313 312 313 313 312 311 311 311 311 309 306 305 305 305 305 306 306 307 307 308 308 308 309 309 310 310 310 310 310 310 310 311 311 312 312 312 312 312 312 313 313
330 330 329 329 329 329 329 328 327 328 327 326 327 328 328 327 325 326 327 326 325 324 324 322 321 322 322 319 318 319 318 319 318 315 313 313 313 312 312 312 311 310 308 307 307 307 307 307 306 306 307 307 307 308 308 308 308 309 309 309 309 310 311 311 312 312 312 312 312 312 313 313 313 314
330 329 329 329 329 329 329 328 328 328 328 327 327 328 327 326 325 325 326 327 326 325 323 321 320 320 321 318 317 318 318 317 317 315 314 314 313 312 312 312 312 311 310 308 308 308 308 308 308 308 308 309 309 309 309 309 310 310 310 311 311 311 312 312 312 312 312 312 312 313 313 314 315 315
328 328 329 330 330 329 329 328 328 328 328 329 329 328 327 326 326 326 326 327 326 324 323 322 321 320 319 318 318 318 317 315 315 315 314 314 313 313 313 313 313 313 312 311 310 310 310 310 310 310 310 310 311 311 311 311 311 311 311 311 312 312 312 312 312 312 313 313 314 314 315 315 316 315
329 329 331 331 329 329 328 327 328 328 327 328 329 328 327 327 327 327 325 325 325 324 323 323 323 321 319 318 318 318 317 315 316 316 315 314 314 313 313 313 313 313 313 313 312 312 312 311 311 311 311 312 312 312 312 312 311 311 311 311 311 312 312 313 313 314 315 315 316 316 315 315 314 313
328 329 329 330 328 327 327 327 327 327 327 327 327 327 327 327 327 327 325 324 324 324 323 323 323 322 320 318 318 318 317 316 316 316 316 315 315 314 314 313 314 313 312 313 313 313 313 313 312 312 313 313 313 312 312 313 313 313 313 313 313 314 315 315 316 316 316 315 315 314 312 311 309 307
327 326 326 327 326 325 325 326 327 327 327 327 327 327 326 326 327 326 326 324 323 323 323 323 323 323 322 320 318 318 318 318 316 316 316 316 315 315 314 314 314 314 313 313 314 314 314 314 314 314 314 314 315 315 315 315 315 315 315 315 315 316 316 316 315 315 313 312 311 309 307 305 303 302
327 327 325 325 325 325 325 325 326 327 326 326 326 325 325 325 325 325 326 325 323 323 324 323 323 324 324 322 319 318 318 318 317 316 316 317 316 316 314 314 315 316 315 314 314 315 315 315 316 316 315 315 316 317 318 318 318 317 316 316 316 315 315 314 312 310 308 307 305 303 301 300 299 298
328 327 327 326 326 326 326 324 325 327 327 326 325 325 324 324 325 325 326 325 324 323 324 324 324 323 323 322 320 319 319 319 318 318 318 318 318 317 315 315 316 317 317 315 315 316 315 316 317 318 317 318 318 319 319 319 318 317 316 315 313 312 311 309 307 304 303 301 300 299 298 298 298 297
328 327 327 328 328 327 326 325 326 327 327 326 324 324 325 325 325 326 326 325 324 323 324 325 324 323 322 322 321 320 319 319 318 319 320 319 318 317 317 317 318 318 317 316 316 316 316 317 319 319 319 319 319 319 319 318 317 315 313 311 310 308 306 304 302 300 299 298 298 298 298 298 298 298
327 326 327 328 327 326 327 327 325 326 326 326 324 325 326 326 326 325 325 325 325 324 325 325 325 323 322 322 323 322 320 319 319 319 321 320 318 317 317 318 319 319 317 316 316 316 317 319 320 320 318 318 318 318 316 315 313 311 310 309 307 305 302 299 298 298 298 298 298 298 298 298 298 298
325 326 325 326 326 326 327 327 325 325 325 325 325 325 325 325 325 324 324 325 325 325 324 325 324 323 321 322 323 323 321 320 320 320 320 320 320 319 318 318 319 319 317 315 314 316 318 320 320 320 319 317 316 314 310 309 309 309 309 308 305 301 298 297 298 298 298 298 298 298 298 298 298 298
325 326 324 324 325 325 323 324 325 324 324 325 325 325 324 323 323 323 323 324 324 324 324 324 324 324 323 323 323 323 323 322 321 321 321 320 320 319 318 317 319 318 317 315 314 314 317 317 316 317 317 314 311 309 308 308 309 309 308 306 302 298 297 298 298 298 298 299 299 299 299 299 299 298
324 325 323 323 325 325 323 324 325 325 325 325 325 324 322 322 323 323 323 324 324 324 324 324 323 323 323 323 323 322 322 322 322 321 321 319 319 319 318 317 319 319 317 316 314 313 313 313 312 313 311 307 306 307 308 309 309 308 307 304 302 301 300 300 300 301 301 300 300 301 300 300 300 298
322 323 323 323 324 325 325 325 325 325 325 324 323 323 322 322 323 324 323 322 322 322 321 321 321 321 322 322 321 320 319 320 319 319 318 317 318 319 319 318 317 317 317 315 312 311 311 310 309 308 307 304 304 306 307 308 308 308 306 305 305 305 304 303 303 304 303 302 302 302 301 301 300 298
321 321 322 322 323 324 325 325 325 324 324 323 322 321 321 321 322 321 320 319 318 317 317 317 317 317 317 318 317 317 316 316 315 315 315 316 317 318 319 318 316 315 315 313 310 309 308 306 305 305 304 303 302 303 305 306 307 307 306 305 305 305 305 304 305 304 303 303 302 302 301 301 300 299
319 320 320 320 322 323 324 324 324 324 323 322 321 320 319 319 319 318 317 316 315 315 314 314 314 314 315 315 315 315 315 314 313 314 316 317 316 316 316 316 315 314 313 311 309 307 306 304 305 304 303 303 302 303 304 306 306 307 306 305 305 304 304 304 304 303 303 302 302 301 301 300 300 300
315 317 318 319 319 321 322 322 322 323 322 320 319 319 318 317 316 315 315 314 313 312 312 311 312 312 312 313 314 314 315 314 313 314 315 316 315 314 313 313 313 311 309 307 306 305 303 302 302 301 300 302 304 305 305 306 306 306 305 304 304 303 303 303 303 302 302 302 301 301 301 301 301 300
312 314 316 317 318 319 320 319 318 318 319 318 318 318 316 314 313 312 312 312 311 310 309 309 309 310 310 312 313 313 313 312 312 313 313 312 311 310 309 309 307 305 303 302 301 300 299 298 299 298 298 300 303 305 306 306 306 305 304 303 303 302 302 302 302 302 301 301 301 301 301 301 301 300
308 309 312 316 318 317 316 316 315 315 315 316 316 316 314 312 311 311 310 310 309 309 309 309 310 310 310 310 310 308 307 306 305 304 304 303 302 301 300 300 299 298 298 297 298 297 297 297 298 297 297 299 303 305 305 304 304 304 303 302 302 301 301 301 302 301 301 301 301 300 300 300 299 298
305 305 307 311 314 313 311 311 312 313 313 314 314 313 312 312 312 311 311 310 310 310 309 308 308 307 305 304 303 302 301 300 299 298 297 297 297 297 297 297 297 297 297 297 297 297 297 298 297 297 299 302 304 304 304 303 303 303 303 302 301 301 301 301 301 300 300 300 300 300 300 299 298 298
303 303 304 306 308 309 308 307 309 310 311 311 311 311 310 310 310 310 310 309 308 307 306 304 303 302 300 300 299 298 298 297 297 297 297 297 297 298 297 297 297 297 297 297 297 297 297 297 297 298 301 303 304 303 302 302 302 302 302 301 300 300 301 300 300 300 299 299 299 299 299 298 297 297
301 301 303 304 305 305 305 305 305 306 306 307 307 307 306 305 305 305 305 304 303 303 302 301 300 299 298 298 297 297 297 297 297 297 297 297 298 298 298 298 298 298 297 297 297 297 296 297 298 299 300 301 301 301 301 301 301 301 301 300 300 300 300 300 299 299 299 298 298 298 298 298 297 297
300 301 302 303 303 303 303 302 302 302 302 302 302 302 302 301 301 301 300 300 299 299 298 298 297 297 297 297 297 297 297 297 297 297 297 297 298 299 300 301 301 301 301 300 299 298 297 297 298 298 298 298 298 298 299 300 301 300 300 299 299 299 299 299 299 298 298 298 298 298 298 298 297 297
300 300 301 301 301 301 301 302 301 301 301 301 301 301 301 300 300 300 300 299 298 297 297 297 297 297 297 297 297 297 297 297 297 297 297 297 298 300 301 301 301 301 301 301 300 299 298 298 298 298 299 298 298 298 298 298 299 299 299 299 298 298 299 298 298 298 298 298 298 298 298 297 297 297
299 299 299 299 300 300 300 301 301 301 301 301 301 301 301 301 301 301 300 300 299 299 298 298 298 297 297 297 297 296 297 297 296 296 296 296 297 299 299 299 299 300 300 300 299 299 299 299 299 299 300 299 299 299 299 298 297 297 297 298 298 298 298 298 298 298 298 297 297 297 297 297 297 297
297 297 298 298 298 298 299 299 299 299 299 299 299 299 299 300 300 299 299 299 299 299 298 298 298 298 298 298 298 297 297 297 297 296 296 296 296 296 297 297 298 299 299 299 299 299 299 299 299 299 299 300 300 300 299 298 297 296 296 296 297 297 297 297 297 297 297 297 297 297 296 296 297 296
296 296 296 296 296 297 297 297 297 297 297 297 297 297 298 298 298 298 298 298 298 297 297 297 297 297 297 298 298 297 297 297 296 296 295 295 295 295 295 296 298 299 299 298 298 298 298 298 298 298 298 298 299 299 298 297 296 295 295 295 296 296 296 296 296 297 297 297 297 297 296 296 296 295
296 295 295 295 296 296 296 296 296 296 296 296 296 297 297 297 297 297 297 297 297 297 297 296 296 296 296 295 295 295 295 295 294 294 294 295 295 296 296 297 298 298 298 298 298 298 297 297 297 297 297 297 298 298 297 296 296 295 294 294 295 295 296 296 296 296 297 297 296 296 296 295 295 295
296 295 295 295 295 295 296 296 296 296 296 296 296 296 296 296 296 296 296 296 296 296 296 295 295 295 294 294 294 293 293 294 294 294 295 296 296 296 296 297 297 297 297 297 297 297 297 297 297 297 297 297 297 297 296 296 296 295 294 294 294 294 295 296 296 296 296 296 296 296 296 295 295 295
296 296 295 295 295 295 295 295 295 295 295 295 295 295 295 295 295 295 294 294 294 294 294 294 293 293 293 293 293 293 293 294 294 294 294 295 295 295 296 296 296 296 296 296 296 297 297 296 296 295 296 296 296 296 296 296 296 295 295 294 294 294 294 295 295 295 295 296 296 296 295 295 295 295
296 296 295 295 295 295 295 294 294 294 294 294 294 293 293 293 293 293 293 292 292 292 292 292 292 292 292 293 293 293 294 294 294 294 293 293 293 294 295 295 295 295 295 296 296 296 296 296 295 294 295 295 296 296 296 296 296 296 295 295 294 294 293 293 293 293 294 295 295 295 295 295 295 295
296 295 295 295 294 294 294 294 294 293 293 293 292 292 292 291 291 291 291 291 291 292 292 292 292 292 293 293 293 293 293 293 294 294 294 294 294 294 294 295 295 295 296 296 295 295 296 296 295 295 295 296 296 296 296 296 296 295 295 295 295 295 294 294 293 293 293 293 294 294 295 295 295 295
295 295 295 294 294 294 294 294 293 293 293 292 291 291 291 291 291 291 292 292 292 292 292 292 292 292 293 293 293 293 293 293 293 293 293 293 294 294 294 294 294 295 295 295 295 295 295 295 296 296 296 296 296 296 296 296 296 296 296 295 295 295 295 295 295 294 293 293 292 293 293 293 294 294
294 294 294 294 294 294 294 294 293 293 293 292 292 292 292 292 292 292 292 292 292 292 292 292 292 292 293 292 292 292 292 292 292 293 293 293 293 293 293 294 294 294 295 295 295 295 295 295 295 295 295 296 296 296 296 296 296 296 295 295 295 295 295 295 295 295 295 294 294 293 293 293 293 293
294 294 294 294 294 294 293 293 293 293 293 292 292 292 292 292 292 292 292 292 292 292 292 292 292 293 293 292 292 292 292 292 293 293 293 293 293 293 293 294 294 294 294 295 295 295 295 295 295 295 295 295 295 295 295 295 295 295 295 295 295 295 295 295 295 295 295 295 295 294 293 293 293 293
Wind_Speed
17 16 16 17 19 18 18 19 19 19 20 19 20 22 21 20 22 21 20 21 22 21 19 19 18 17 18 18 15 16 17 16 17 17 16 17 17 15 16 15 15 15 14 14 13 12 12 12 13 14 14 14 14 14 14 14 14 13 12 11 9 8 7 6 6 4 3 2 3 4 4 5 6 7
18 17 17 18 19 18 19 20 19 19 19 19 20 22 22 22 23 23 23 23 21 21 21 19 17 18 19 18 16 17 17 16 17 17 15 16 17 16 16 16 16 15 15 15 14 13 13 13 14 15 15 15 14 15 15 15 15 14 12 11 9 8 7 6 4 3 1 1 2 3 4 5 6 7
21 21 19 18 18 18 18 19 19 19 19 20 20 21 23 24 24 22 22 22 21 20 22 19 17 18 19 17 17 17 17 17 17 17 15 15 16 17 16 16 16 16 16 16 15 14 14 14 15 16 15 15 15 15 16 15 15 14 12 11 9 8 7 5 5 4 4 4 5 5 6 7 8 9
21 20 19 18 18 17 18 19 18 18 18 20 19 18 21 24 23 22 22 20 18 19 22 21 18 19 20 17 17 17 18 19 17 16 16 17 17 17 17 17 17 17 17 16 15 15 15 15 15 16 16 16 16 16 15 15 15 14 13 12 10 9 7 6 6 6 6 7 7 8 9 10 11 12
20 18 18 18 18 18 19 19 18 18 19 20 20 19 20 20 20 21 22 21 18 19 23 22 18 19 20 18 17 18 18 19 19 17 17 20 19 17 18 18 17 18 18 17 16 15 15 15 15 16 16 16 16 16 15 15 15 14 14 12 11 9 9 8 7 8 8 9 10 11 13 14 15 16
18 18 18 18 19 19 19 18 18 19 20 21 21 23 24 21 20 20 21 21 20 20 22 21 19 19 20 18 17 18 18 19 20 19 17 19 19 17 18 18 19 19 18 17 16 15 14 14 14 15 16 16 16 16 15 15 15 15 14 13 12 10 10 9 10 11 11 13 14 15 16 17 18 19
19 19 19 19 20 20 19 19 19 20 20 19 20 23 24 22 21 22 22 21 20 21 22 21 21 20 21 19 17 18 18 17 20 20 16 16 17 16 16 17 18 19 19 18 17 16 15 14 14 15 16 16 16 16 15 15 14 14 14 13 12 11 11 11 12 13 14 16 17 18 19 20 21 23
18 19 19 20 20 20 20 21 21 19 19 19 19 20 21 21 22 23 22 21 21 22 22 22 20 20 22 19 17 19 18 15 18 19 17 15 16 16 16 15 15 17 18 18 18 17 16 14 14 14 15 16 16 15 15 15 14 14 14 13 13 13 13 14 15 16 18 19 20 21 22 24 25 26
18 18 19 19 19 20 21 21 21 20 20 21 20 20 21 22 23 23 21 22 24 23 22 22 19 18 21 19 17 19 19 16 17 18 17 17 16 16 16 15 15 17 18 18 18 18 17 16 16 15 15 15 16 15 15 15 14 14 14 14 14 15 15 16 18 19 20 22 23 24 25 26 28 28
18 19 20 19 19 20 20 20 20 19 20 21 19 19 20 20 22 23 21 23 26 24 21 20 17 16 18 18 18 19 19 17 17 18 17 17 17 17 17 16 16 19 19 19 19 19 19 19 18 17 16 15 15 15 15 15 14 14 15 15 16 16 18 19 21 22 23 24 25 26 27 28 29 29
18 19 19 19 19 19 19 20 19 18 18 20 19 18 19 19 21 22 19 21 25 24 21 19 17 18 19 18 18 18 18 18 17 18 18 18 17 18 18 17 16 18 19 18 19 19 18 18 17 16 16 16 16 16 16 15 15 15 15 16 17 18 20 21 22 23 24 25 27 28 28 29 29 29
18 19 19 18 17 18 19 19 19 17 17 18 18 16 16 17 19 20 19 21 23 24 21 18 18 18 18 18 18 18 19 19 18 18 19 18 18 18 19 18 18 16 17 17 19 19 18 17 17 17 17 17 17 17 16 16 15 15 16 17 19 21 22 22 23 25 26 27 27 28 28 28 29 29
18 18 17 16 17 17 18 18 19 19 18 19 19 18 17 18 18 18 20 21 23 24 22 19 18 19 18 18 19 19 20 20 19 18 18 18 18 18 18 19 19 18 16 16 16 17 17 17 17 18 18 17 16 16 15 15 16 17 19 20 21 22 23 23 24 25 25 26 26 27 28 29 30 31
18 17 16 16 18 19 18 18 19 20 20 21 22 22 21 21 20 20 21 20 21 24 25 22 20 20 20 20 20 19 19 19 18 17 18 18 17 18 19 19 20 20 18 16 16 16 16 15 16 17 16 15 14 15 15 17 18 19 21 21 21 21 22 22 23 24 24 25 26 27 29 30 31 32
18 18 17 17 19 19 19 18 19 20 20 21 22 21 21 19 19 21 22 21 21 24 28 27 22 20 21 21 20 20 18 18 19 18 18 18 17 18 19 18 19 20 20 18 16 16 16 15 14 15 14 14 16 17 18 19 20 20 19 19 19 19 20 21 22 23 25 26 27 29 30 31 32 32
17 17 17 18 19 19 18 18 19 20 20 21 21 21 21 20 20 21 22 21 20 22 28 29 24 20 21 22 23 22 19 18 19 19 18 18 18 18 18 17 17 19 21 20 17 16 16 15 15 14 13 13 16 17 17 18 18 18 17 16 17 18 19 21 23 25 26 27 28 30 30 31 31 31
16 16 16 18 18 17 17 18 18 19 20 21 22 21 22 22 21 20 20 21 21 20 22 26 25 21 20 23 25 23 21 20 21 22 20 19 19 19 18 17 16 17 20 21 19 17 16 16 15 14 13 15 17 16 17 18 18 17 17 17 19 20 21 23 25 26 27 28 28 29 29 29 30 30
16 16 16 16 16 16 16 16 15 16 19 20 21 21 20 20 20 19 20 22 22 21 20 23 26 25 22 23 25 25 24 24 24 23 22 21 20 18 18 18 17 17 19 20 19 17 17 16 15 13 14 18 20 19 19 19 18 17 19 20 21 21 23 24 25 26 27 27 27 27 27 28 28 28
17 16 15 14 15 15 15 15 15 16 16 17 18 19 17 16 18 20 22 23 22 22 23 23 25 26 26 26 28 29 29 28 27 24 22 22 22 20 19 19 16 17 19 20 19 17 15 15 16 14 12 13 14 16 17 17 17 18 21 22 22 22 24 24 25 25 25 25 25 25 26 26 26 26
18 17 16 15 16 16 15 15 15 16 16 15 15 15 15 17 20 21 21 22 22 22 23 23 22 22 25 28 29 30 30 30 30 27 23 21 21 22 22 20 15 16 20 22 21 17 13 14 16 15 12 12 12 14 15 16 17 19 20 21 21 22 23 23 23 23 23 23 24 24 25 25 25 25
17 17 17 16 17 16 14 14 15 15 16 14 11 13 16 20 22 20 19 20 22 22 22 22 21 21 25 28 28 28 31 31 31 31 27 21 19 22 25 21 15 16 23 26 23 17 12 13 16 17 17 17 16 16 15 12 13 16 18 19 20 20 20 20 20 20 20 20 21 22 23 23 23 23
15 16 16 16 16 15 14 15 14 14 16 14 12 13 15 16 17 17 16 17 18 20 20 19 19 20 24 27 26 27 30 31 31 33 30 24 19 20 24 22 18 19 23 24 22 18 13 10 13 16 16 14 12 12 9 7 10 14 18 20 21 19 18 17 17 17 17 17 18 19 21 20 20 19
14 17 17 17 18 17 16 16 15 15 15 16 15 14 12 11 12 13 14 15 15 17 18 17 18 20 21 24 25 26 28 30 31 29 27 25 23 21 22 22 20 19 19 17 16 16 14 10 11 13 11 6 2 3 5 7 11 14 17 20 19 17 17 16 15 15 15 16 17 19 21 20 18 16
16 19 18 18 18 18 18 17 17 16 16 17 15 12 11 12 14 13 13 14 15 15 16 17 18 19 20 21 22 21 21 24 26 23 22 25 26 22 21 22 21 17 16 14 13 13 13 12 11 10 9 4 3 7 8 9 10 11 14 15 12 10 12 12 12 14 15 16 17 18 21 22 21 17
20 21 20 20 20 20 20 20 19 17 18 18 14 11 12 14 14 12 13 13 13 13 13 14 14 15 16 17 18 18 18 20 22 20 20 24 26 23 21 23 22 17 13 11 10 10 10 9 9 10 11 10 9 10 10 8 6 7 10 10 7 6 8 6 7 11 14 15 17 18 20 24 24 20
20 21 21 20 21 22 23 23 21 19 20 20 16 14 15 14 11 11 12 12 13 13 13 14 14 15 16 16 17 18 20 21 21 21 21 23 24 22 20 19 17 13 11 9 9 8 8 9 12 13 11 9 8 9 9 8 7 8 8 7 6 6 6 4 4 7 10 12 16 18 19 21 24 22
18 19 20 20 19 21 23 22 21 21 22 22 20 19 17 13 10 11 13 14 15 14 14 13 13 14 15 16 18 19 20 20 20 20 21 21 21 20 18 18 16 13 11 10 10 10 10 13 15 14 12 11 8 6 7 7 7 7 6 5 5 5 4 3 4 5 7 9 12 15 17 17 20 22
13 14 15 17 17 18 21 21 19 20 23 24 23 21 19 15 14 13 14 15 15 16 16 16 17 17 17 17 18 18 17 17 17 17 17 17 15 15 15 15 13 10 8 9 10 11 13 15 14 12 12 11 7 4 5 6 5 5 5 4 4 4 3 4 5 6 7 7 7 11 13 14 17 20
4 5 8 12 14 15 16 18 18 17 18 20 21 20 21 22 23 21 19 19 20 21 21 21 21 20 19 17 16 15 14 13 13 12 11 10 9 9 9 9 9 8 8 9 10 11 13 13 12 10 10 9 6 4 4 4 3 4 4 3 3 2 4 4 5 7 8 7 6 9 13 15 15 14
5 2 3 6 9 10 11 15 18 18 17 17 17 18 20 23 25 25 25 25 24 23 22 21 19 18 16 15 14 14 13 12 11 10 9 9 9 8 8 8 9 9 9 10 10 11 12 12 11 9 8 6 3 4 6 5 3 3 3 3 3 3 4 5 5 7 7 6 6 9 11 11 11 10
8 7 6 7 7 7 9 13 17 19 19 18 17 17 19 20 20 21 21 22 22 22 20 18 17 16 15 15 14 14 13 13 13 12 11 10 9 9 8 9 9 9 8 8 8 8 9 9 8 9 10 9 6 5 7 5 2 2 2 3 4 4 5 5 4 6 7 5 6 8 8 8 8 9
11 10 10 10 10 11 12 14 15 16 17 17 17 18 18 17 17 16 15 15 15 16 15 14 14 14 13 13 13 12 12 12 11 11 10 10 10 9 7 7 6 5 4 5 5 5 6 7 7 7 9 12 11 8 5 3 0 2 2 3 3 4 5 5 4 6 8 6 6 6 8 10 10 9
6 7 8 9 10 12 13 13 14 14 14 15 15 16 16 16 16 16 16 15 14 13 13 13 13 13 12 11 10 9 9 9 9 9 11 11 11 10 8 8 7 6 4 3 2 1 2 3 6 5 2 2 5 5 4 4 1 1 1 2 3 3 5 6 5 5 7 6 6 5 7 11 12 11
2 2 4 6 8 8 8 9 9 9 9 9 10 10 11 11 11 12 13 14 15 14 13 12 12 11 10 9 8 9 10 9 8 9 11 12 12 11 10 10 10 9 7 5 3 1 2 2 1 1 4 6 4 2 2 2 1 1 1 2 3 3 4 5 5 5 6 6 6 6 6 8 11 12
7 7 7 7 7 6 5 5 5 4 4 4 5 5 6 7 7 8 10 12 13 13 12 12 12 11 10 9 9 9 9 8 7 7 7 8 9 10 10 10 9 8 7 5 3 3 3 3 0 3 6 6 5 5 3 2 3 3 3 2 2 3 4 4 5 6 5 5 5 5 4 5 8 10
14 13 12 11 10 9 8 8 7 7 6 6 6 7 7 8 9 9 10 11 11 11 11 11 10 10 9 8 8 8 8 8 6 5 5 6 7 8 9 9 8 7 5 4 4 3 3 3 1 2 4 6 7 5 2 3 6 6 3 1 2 3 4 4 4 5 4 4 3 3 4 5 6 7
17 15 14 13 13 12 12 12 11 11 11 11 11 11 12 12 13 13 13 13 13 12 12 11 11 11 10 9 8 8 8 7 7 7 7 7 7 7 8 9 9 6 4 4 4 3 3 3 2 1 1 3 3 4 4 5 9 7 3 1 0 1 2 3 3 3 3 3 2 2 3 4 5 7
15 14 14 14 13 12 12 12 11 12 12 12 12 12 13 13 13 13 13 13 13 13 12 12 11 11 11 10 9 8 8 8 8 9 9 9 9 9 9 8 7 5 4 4 4 3 3 3 3 3 2 2 1 3 5 6 6 6 5 4 2 1 2 2 2 1 2 2 2 1 2 4 7 9
12 12 11 11 11 11 10 9 9 9 10 10 10 10 11 11 11 11 11 11 11 11 11 11 10 10 10 11 11 10 10 10 9 10 10 10 9 8 8 7 6 5 5 4 3 3 3 2 2 3 3 2 1 2 3 2 2 4 8 8 5 3 2 1 1 2 3 3 3 3 4 5 9 10
11 10 9 8 8 8 8 8 7 8 8 9 10 10 10 11 11 11 11 10 10 10 10 10 11 11 11 10 9 9 10 10 10 9 9 9 9 9 8 7 6 5 5 5 4 3 2 1 2 2 2 3 5 6 5 4 3 3 7 9 8 7 5 4 3 2 1 1 3 4 4 4 7 9
9 9 8 7 6 6 6 6 6 7 8 8 9 9 9 10 10 11 11 11 11 10 10 10 11 12 13 12 10 9 9 9 8 7 7 7 9 10 10 8 6 5 5 5 4 3 2 2 2 2 4 6 7 6 4 4 4 2 3 5 7 8 8 7 6 4 3 2 2 2 2 3 4 6
9 8 7 6 6 6 6 6 6 7 7 6 7 8 9 11 11 11 11 12 11 10 10 10 10 10 10 9 8 8 8 8 7 7 6 6 7 7 7 7 5 4 4 4 4 3 2 3 4 6 7 6 4 2 2 3 4 3 2 3 5 7 7 7 7 6 4 4 3 2 2 3 3 3
9 7 6 5 5 6 6 6 6 7 7 6 7 9 11 11 11 10 10 9 9 9 8 8 8 8 8 8 7 7 7 7 7 7 7 6 5 5 5 6 5 4 4 5 5 4 3 3 4 5 5 4 2 2 3 3 2 2 2 2 4 5 7 7 7 6 4 4 4 4 3 3 3 3
8 6 5 5 5 5 6 6 6 6 6 6 7 8 8 7 7 7 7 7 7 7 8 8 8 8 7 7 7 7 7 7 6 6 5 5 5 5 5 5 5 5 4 4 4 4 4 4 4 4 4 4 3 3 3 2 2 2 2 1 2 4 6 7 8 7 5 3 4 5 4 4 5 6
7 5 5 5 5 5 6 6 6 6 6 6 6 6 6 6 6 6 6 6 7 7 7 7 7 6 6 6 6 6 6 6 5 5 4 4 4 4 4 4 4 5 5 4 4 4 4 3 4 4 3 3 3 3 3 2 3 2 2 2 3 3 4 4 6 6 4 3 5 7 6 6 6 8
Wind_Direction
229 229 233 234 232 232 234 238 235 230 228 220 213 220 221 214 212 205 201 209 210 204 208 205 194 190 189 193 193 190 203 210 198 200 207 202 198 196 195 192 189 188 186 186 185 183 187 188 186 186 186 187 185 179 175 170 166 164 161 158 156 157 158 154 151 146 132 94 54 34 20 10 5 2
229 232 238 236 230 231 233 234 233 228 226 224 218 218 218 215 213 208 204 208 208 206 208 200 189 189 187 190 193 191 200 207 197 197 204 205 202 197 197 197 194 193 190 187 187 187 190 191 191 192 190 189 189 183 178 174 173 173 171 170 171 175 179 180 184 190 214 307 334 338 340 340 340 341
232 233 235 233 229 232 233 230 227 224 225 229 229 224 221 219 215 209 205 205 205 204 204 198 191 188 184 188 194 191 202 209 197 191 196 205 206 199 198 200 197 197 194 190 191 191 192 193 194 194 193 192 192 187 182 180 182 183 183 185 189 193 199 208 221 241 266 285 302 308 313 319 319 321
231 232 228 226 228 231 231 226 221 220 222 227 228 225 225 224 215 208 208 207 204 203 201 194 192 191 184 187 193 189 202 211 197 186 195 205 207 203 201 202 199 199 197 194 194 194 195 195 195 197 196 195 195 192 187 187 190 193 195 199 203 209 218 229 243 258 272 282 291 297 302 305 307 308
230 228 222 224 231 230 229 225 219 218 220 223 223 220 222 221 212 207 210 210 205 203 201 192 188 190 183 186 194 188 200 211 194 183 202 210 207 205 206 203 202 200 198 198 197 197 197 196 196 198 199 200 199 197 195 195 198 202 205 210 214 222 233 242 255 266 275 283 289 294 297 300 301 303
227 224 220 224 229 228 226 224 219 219 221 224 225 224 223 221 217 211 210 209 205 205 204 193 185 188 184 188 195 189 199 213 196 184 204 216 209 208 210 207 205 202 200 202 201 200 200 199 200 201 202 204 205 204 204 203 205 209 212 218 226 234 243 252 262 271 278 284 289 292 295 296 298 299
222 224 222 221 223 224 223 221 219 220 223 225 228 228 225 222 221 217 214 214 210 206 203 193 187 188 186 189 196 193 199 211 200 189 197 210 206 204 207 209 210 207 203 203 204 204 204 203 204 206 207 210 211 212 212 211 213 217 221 229 238 245 254 261 269 276 282 286 288 290 292 293 295 297
223 225 223 219 219 220 221 221 221 221 221 223 226 226 222 219 219 216 214 214 210 205 201 197 196 190 185 190 197 194 194 199 197 192 193 199 199 198 199 203 213 216 210 207 208 208 209 209 209 211 213 215 217 218 219 219 222 226 233 240 248 255 263 270 276 280 282 284 286 288 290 293 295 297
225 224 224 221 218 218 221 224 224 221 219 220 224 224 221 220 218 213 210 209 207 206 202 201 204 195 185 191 195 191 191 191 190 192 195 196 195 197 198 198 213 224 218 212 213 212 212 215 214 215 217 219 222 224 224 227 230 236 242 248 256 263 268 273 275 277 279 282 284 287 290 292 294 296
226 225 225 222 217 218 221 225 227 224 219 220 224 226 224 222 218 213 206 199 199 201 196 196 205 200 189 192 195 192 193 192 189 190 194 196 196 197 198 196 209 226 223 216 217 218 217 218 219 221 222 223 226 228 229 233 236 241 247 253 260 265 267 270 272 274 278 281 284 287 289 291 292 293
226 227 227 225 221 220 219 222 228 227 221 220 223 226 226 221 219 216 203 188 189 193 188 185 196 200 191 191 196 197 195 194 192 191 192 195 197 198 199 196 205 224 229 223 221 223 224 225 225 226 227 228 229 231 233 236 239 243 249 255 259 261 263 267 270 275 279 282 284 286 287 289 291 292
226 228 227 227 227 225 220 220 224 223 221 220 219 222 225 221 219 219 206 188 187 191 186 182 191 199 193 189 194 196 194 194 195 194 194 196 197 197 200 200 200 214 228 229 226 227 229 229 229 229 229 230 229 231 234 236 239 244 248 252 255 258 264 269 274 278 280 282 285 286 288 290 291 293
227 228 227 225 226 227 226 222 219 218 218 217 214 213 218 219 215 211 206 199 195 194 189 185 192 198 195 192 194 195 195 195 196 196 196 198 200 200 202 205 204 206 215 223 227 231 232 230 231 231 229 227 228 231 235 237 240 245 249 254 259 265 270 275 278 281 283 285 287 288 290 291 293 294
225 224 222 223 224 226 228 226 222 221 221 220 218 215 216 218 215 210 210 210 208 202 194 191 194 195 194 195 197 197 196 196 197 197 197 199 202 203 205 208 210 210 210 211 216 226 234 236 233 230 232 236 238 237 240 243 247 250 253 259 265 270 275 278 281 283 285 287 288 289 291 292 293 295
229 226 223 226 229 229 231 231 228 226 225 224 223 219 216 217 219 219 218 217 215 209 202 200 198 194 196 199 198 198 198 197 198 200 201 201 203 205 208 209 209 208 208 210 212 218 225 230 229 227 235 243 237 234 241 249 251 253 257 263 268 272 276 279 283 285 286 288 289 291 292 294 295 296
234 233 232 233 235 233 229 229 228 227 227 226 224 220 219 221 225 227 226 222 220 216 209 206 203 198 202 205 199 197 199 200 203 205 206 207 208 209 211 213 211 206 204 206 210 213 215 216 216 215 224 231 226 226 239 249 253 258 265 271 275 278 281 284 286 287 288 290 292 293 294 295 296 297
237 236 236 237 239 235 229 228 227 225 225 226 225 223 223 226 228 227 224 221 221 221 215 210 208 207 211 211 206 202 203 207 211 211 210 211 212 213 215 217 216 209 204 202 204 210 212 209 208 214 224 234 235 233 238 244 250 260 269 274 278 282 285 287 289 290 291 292 294 294 295 296 297 297
239 236 238 238 236 234 233 232 226 224 226 226 225 225 227 228 228 224 221 218 219 219 216 213 213 214 214 214 213 210 208 210 211 211 213 214 213 215 219 220 216 210 205 200 199 207 214 211 212 220 224 228 229 227 230 237 245 258 270 278 283 286 289 290 292 293 293 294 295 295 296 296 297 297
245 236 233 236 235 234 235 233 223 220 225 225 222 221 222 224 224 221 219 218 218 216 215 217 218 217 215 215 215 214 215 215 213 211 212 215 215 216 219 218 212 205 202 199 197 204 214 215 215 217 214 213 215 218 227 241 258 273 281 285 290 293 294 294 294 294 294 295 295 296 296 296 296 297
258 245 233 237 238 229 226 233 230 219 218 226 223 210 206 214 222 223 220 218 219 218 221 228 229 221 218 219 217 216 217 219 219 216 211 211 214 216 216 213 206 206 210 210 207 206 210 214 211 206 201 203 216 235 251 265 276 282 283 286 291 294 294 293 293 294 295 295 296 296 295 296 296 297
266 253 240 241 240 226 220 236 243 227 218 224 219 199 202 216 224 226 222 219 222 224 226 233 233 225 222 223 222 220 219 220 222 220 214 206 204 209 214 211 204 212 222 222 218 210 203 210 212 207 209 219 240 267 285 288 281 280 282 286 291 293 292 294 295 295 295 295 296 296 296 297 298 299
263 250 240 241 242 234 230 239 246 235 221 213 203 199 208 224 229 226 221 220 225 228 229 231 229 223 223 224 225 226 227 225 223 221 219 214 207 209 214 209 197 207 223 227 221 208 193 197 213 219 227 241 263 281 290 281 273 280 287 292 296 298 298 300 301 300 302 302 302 302 303 304 305 305
251 241 236 238 239 236 233 233 238 234 216 203 204 207 208 222 233 230 224 225 228 229 229 229 226 222 222 223 224 227 230 229 227 227 225 218 210 209 211 202 192 200 211 213 207 199 191 196 216 231 245 261 239 210 231 257 271 279 284 290 298 304 305 310 315 318 320 319 318 317 315 316 318 316
240 238 234 234 235 232 227 228 234 230 208 196 202 207 205 221 233 230 220 218 219 220 222 222 220 219 218 220 222 223 223 224 224 228 227 215 206 203 198 187 182 189 195 190 191 197 200 205 217 235 255 260 192 199 231 259 267 268 275 283 294 304 309 320 328 325 326 327 326 327 325 325 328 326
241 244 242 238 235 230 225 228 235 227 202 192 197 201 205 217 222 214 208 205 200 199 202 201 202 204 205 207 210 208 206 205 204 206 210 207 205 207 205 193 187 192 197 195 200 205 205 213 232 253 266 267 247 230 232 244 246 250 266 274 276 285 301 323 330 321 326 333 332 333 334 331 329 328
245 252 256 251 240 230 225 229 234 221 197 189 191 197 202 205 202 198 196 185 172 167 169 174 179 184 187 189 190 191 191 190 189 189 192 194 197 205 212 212 210 214 216 216 225 231 230 240 250 252 250 248 237 226 227 233 235 239 254 269 277 287 304 326 327 321 329 335 332 330 332 328 320 318
250 253 260 261 251 234 226 224 222 211 197 188 187 195 203 199 185 181 174 161 152 150 149 153 160 167 174 179 181 182 184 184 185 186 188 191 193 196 205 216 223 225 224 225 232 236 233 235 239 234 220 209 199 205 225 229 232 241 252 277 296 304 320 324 319 328 332 331 328 327 328 323 314 312
250 243 247 254 252 237 227 220 210 200 193 188 187 192 192 175 155 152 154 151 149 148 147 151 157 163 172 181 185 185 185 185 188 191 191 194 196 198 206 218 222 221 219 216 217 217 218 223 227 221 213 206 195 201 226 222 223 243 258 284 299 311 348 344 331 329 323 321 330 325 314 305 299 301
263 230 223 234 238 231 222 213 204 195 189 188 188 188 183 171 160 156 158 163 164 164 165 170 175 178 180 184 185 183 182 182 182 183 182 180 179 182 192 205 208 208 208 208 209 209 210 218 222 212 199 197 188 190 221 227 227 238 259 297 307 330 358 344 324 314 307 315 332 313 291 284 288 297
39 55 170 201 215 215 205 197 196 194 192 193 192 187 183 181 178 177 178 179 180 180 179 178 176 173 170 170 171 173 175 173 163 154 152 152 155 162 175 186 193 200 206 210 212 206 205 214 218 202 182 172 176 211 216 214 224 238 262 304 330 355 341 325 321 316 310 325 339 314 295 293 302 311
74 85 104 123 146 164 171 177 182 184 187 190 191 187 184 184 184 184 184 183 180 178 175 172 168 164 163 164 165 164 163 161 154 148 146 147 151 161 174 180 182 185 191 198 203 205 208 210 201 186 174 161 162 210 217 204 216 252 268 316 347 346 317 311 327 317 305 321 336 318 309 317 325 325
89 98 104 107 114 128 139 145 150 157 163 167 170 172 172 169 167 168 169 170 168 165 163 161 158 155 154 153 152 152 155 156 155 155 158 161 162 163 161 153 149 155 170 181 189 202 208 194 178 185 194 187 188 204 202 167 291 283 286 320 333 325 305 303 316 310 307 321 332 317 314 320 324 334
87 100 109 112 117 126 130 129 128 130 135 140 145 151 152 150 149 149 149 148 143 137 137 138 139 142 143 142 142 146 149 150 155 159 158 152 145 135 121 109 104 100 101 117 148 202 230 192 176 176 201 212 205 199 155 110 67 323 343 327 306 301 306 307 307 309 316 323 318 313 319 319 320 333
4 48 86 103 112 123 131 133 131 132 134 136 140 146 150 152 154 155 155 152 145 138 133 129 128 127 127 127 134 141 140 140 146 153 152 148 141 136 133 135 135 130 121 117 130 126 46 42 157 221 0 7 5 5 67 94 202 238 282 317 303 290 293 302 309 314 320 320 310 310 323 322 320 330
40 47 52 61 67 73 86 101 109 115 129 146 157 165 172 175 177 178 177 174 169 162 156 147 137 127 120 117 118 119 120 121 127 137 150 158 156 153 154 155 152 145 134 119 119 124 90 66 11 283 307 318 313 316 325 291 270 283 283 272 282 284 283 295 309 309 309 312 309 314 328 328 327 333
48 52 56 60 63 67 73 79 85 90 98 108 117 127 136 140 142 147 151 155 157 157 154 151 146 141 136 133 128 123 119 120 126 142 159 166 167 169 169 158 141 129 125 118 111 109 101 95 138 240 277 277 262 244 232 329 333 336 331 226 243 286 295 303 311 309 306 306 311 337 354 345 336 338
46 50 57 63 67 73 78 83 90 95 99 103 107 110 114 116 118 122 125 128 131 133 135 137 139 139 139 140 143 146 145 146 154 161 159 152 149 151 148 135 122 113 116 119 113 109 105 88 64 41 323 279 232 168 117 11 348 349 11 85 141 326 326 325 326 321 312 304 317 357 9 359 349 349
42 46 53 58 61 65 71 77 84 89 92 97 101 106 110 112 114 116 119 121 123 125 126 127 128 131 135 137 138 139 143 149 153 150 142 133 126 121 116 113 114 119 127 127 116 95 82 68 44 33 16 341 12 84 66 22 357 356 8 18 48 60 7 351 357 354 336 341 357 345 339 4 9 6
35 39 45 50 51 54 59 65 72 80 85 89 93 99 105 109 113 115 117 119 121 121 122 124 127 134 141 142 140 137 135 134 133 130 126 122 116 111 108 107 110 111 109 115 115 90 71 80 100 81 60 28 23 55 56 54 36 12 15 24 37 44 35 38 48 32 8 1 352 304 300 352 11 10
27 28 31 37 41 45 51 60 69 76 82 88 94 99 103 107 109 108 108 110 114 118 123 129 133 133 130 122 118 123 125 121 119 121 124 128 129 123 113 106 105 103 95 89 88 83 70 255 227 177 118 105 102 95 89 101 106 33 18 25 31 38 59 90 90 60 6 356 3 339 325 351 5 6
24 22 25 33 39 43 50 61 70 77 83 86 89 93 97 100 104 108 110 111 112 115 121 126 127 123 115 104 97 102 107 106 105 100 96 107 117 112 103 100 102 102 95 85 81 86 69 357 357 89 108 99 87 79 77 94 103 74 9 5 16 33 50 63 67 76 106 118 84 46 9 10 11 6
24 22 30 42 49 52 58 64 68 72 75 77 82 91 95 94 96 101 105 104 103 101 103 106 105 101 96 92 94 101 102 101 105 103 94 94 99 94 92 101 108 100 90 85 85 91 82 41 50 74 84 78 66 70 94 96 95 92 48 352 354 15 30 34 36 49 68 84 89 92 56 26 21 9
20 21 34 54 67 72 74 76 77 78 78 80 85 89 90 87 88 90 90 90 91 92 92 95 95 91 89 90 92 96 96 95 101 105 103 102 101 96 99 105 100 88 92 98 91 81 80 75 68 73 80 81 91 115 112 94 75 77 71 13 348 357 3 4 3 6 17 37 48 50 45 30 9 341
20 23 42 59 73 82 85 87 86 84 85 87 84 81 81 83 87 91 91 91 93 95 95 94 90 85 84 86 86 91 95 92 88 90 92 94 101 107 109 106 94 86 94 105 98 84 79 82 82 83 90 97 101 100 99 89 70 62 60 57 26 0 349 351 353 347 337 351 12 4 354 351 349 343
27 39 65 74 79 86 88 89 92 91 89 87 83 83 89 94 93 94 97 98 96 93 90 89 86 85 90 96 96 95 92 86 84 86 83 81 94 102 99 99 103 99 95 99 107 104 93 86 86 90 91 92 91 90 89 83 71 58 47 52 43 19 357 359 358 343 323 341 9 3 352 346 347 348